Tel Aviv, Israel

4:54 AM IDT on August 17, 2018 (GMT +0300)
Ben Gurion

Weather History for LLBG - August, 2018

Change the Weather History Date:

Saturday, August 11, 2018

  Actual Average Record
Temperature  
Mean Temperature 84 °F -  
Max Temperature 91 °F 86 °F 93 °F (1998)
Min Temperature 76 °F 72 °F 70 °F (2017)
Cooling Degree Days 18    
Growing Degree Days 34 (Base 50)    
Moisture  
Dew Point 71 °F    
Average Humidity 65    
Maximum Humidity 83    
Minimum Humidity 46    
Precipitation  
Precipitation 0.00 in - - ()
Sea Level Pressure  
Sea Level Pressure 29.78 in    
Wind  
Wind Speed 5 mph ()    
Max Wind Speed 15 mph    
Max Gust Speed -    
Visibility 6.2 miles    
Events      
Averages and records for this station are not official NWS values.
T = Trace of Precipitation, MM = Missing Value Source: Averaged Metar Reports

Daily Weather History Graph

Daily Weather History Graph

Search for Another Location

Airport or City:

Astronomy

Aug. 11, 2018 Rise Set
Actual Time 6:02 AM IDT 7:28 PM IDT
Civil Twilight 5:36 AM IDT 7:54 PM IDT
Nautical Twilight 5:04 AM IDT 8:25 PM IDT
Astronomical Twilight 4:32 AM IDT 8:58 PM IDT
Moon 5:45 AM IDT (8/11) 7:41 PM IDT (8/11)
Length of Visible Light 14h 18m
Length of Day
13h 26m
Waning Crescent, 0% of the Moon is Illuminated
Aug 11
Waning Crescent
Aug 11
New
Aug 18
First Quarter
Aug 26
Full
Sep 3
Last Quarter

Hourly Weather History & Observations

Time (IDT) Temp. Heat Index Dew Point Humidity Pressure Visibility Wind Dir Wind Speed Gust Speed Precip Events Conditions
12:00 AM 81 °F - 73 °F 70% 29.81 in 6 mi SSW 2.2 mph - -   Scattered Clouds
12:20 AM 80.6 °F 84.6 °F 71.6 °F 74% 29.80 in - Variable 3.5 mph - N/A   Clear
12:50 AM 80.6 °F 84.6 °F 71.6 °F 74% 29.80 in - South 5.8 mph - N/A   Clear
1:20 AM 80.6 °F 84.6 °F 71.6 °F 74% 29.77 in - South 4.6 mph - N/A   Clear
1:50 AM 78.8 °F - 73.4 °F 83% 29.77 in - South 5.8 mph - N/A   Clear
2:20 AM 78.8 °F - 73.4 °F 83% 29.77 in - South 4.6 mph - N/A   Clear
2:50 AM 78.8 °F - 69.8 °F 74% 29.77 in - SSE 5.8 mph - N/A   Clear
3:00 AM 78 °F - 70 °F 71% 29.78 in 6 mi SSE 6.7 mph - -  
3:20 AM 78.8 °F - 69.8 °F 74% 29.77 in - South 4.6 mph - N/A   Clear
3:50 AM 77.0 °F - 69.8 °F 78% 29.77 in - SSE 4.6 mph - N/A   Clear
4:20 AM 77.0 °F - 69.8 °F 78% 29.77 in - SSE 5.8 mph - N/A   Clear
4:50 AM 77.0 °F - 69.8 °F 78% 29.77 in - Variable 3.5 mph - N/A   Clear
5:20 AM 77.0 °F - 68.0 °F 74% 29.77 in 6.2 mi SE 5.8 mph - N/A   Partly Cloudy
6:00 AM 76 °F - 68 °F 69% 29.78 in 6 mi SSE 2.2 mph - -   Partly Cloudy
6:20 AM 77.0 °F - 68.0 °F 74% 29.77 in 6.2 mi SSE 4.6 mph - N/A   Partly Cloudy
6:50 AM 77.0 °F - 66.2 °F 69% 29.77 in 6.2 mi South 4.6 mph - N/A   Partly Cloudy
7:20 AM 78.8 °F - 68.0 °F 69% 29.77 in - South 5.8 mph - N/A   Clear
7:50 AM 80.6 °F 83.2 °F 68.0 °F 65% 29.77 in 6.2 mi SSE 5.8 mph - N/A   Partly Cloudy
8:20 AM 80.6 °F 84.6 °F 71.6 °F 74% 29.80 in 6.2 mi South 5.8 mph - N/A   Partly Cloudy
8:50 AM 82.4 °F 88.2 °F 73.4 °F 74% 29.80 in 6.2 mi Variable 3.5 mph - N/A   Partly Cloudy
9:20 AM 84.2 °F 89.6 °F 71.6 °F 66% 29.80 in 6.2 mi WSW 4.6 mph - N/A   Partly Cloudy
9:50 AM 86.0 °F 91.8 °F 71.6 °F 62% 29.80 in 6.2 mi WSW 5.8 mph - N/A   Partly Cloudy
10:20 AM 87.8 °F 92.6 °F 69.8 °F 55% 29.80 in 6.2 mi SW 6.9 mph - N/A   Partly Cloudy
10:50 AM 87.8 °F 93.8 °F 71.6 °F 58% 29.77 in 6.2 mi West 6.9 mph - N/A   Partly Cloudy
11:20 AM 89.6 °F 96.2 °F 71.6 °F 55% 29.77 in - West 5.8 mph - N/A   Clear
11:50 AM 89.6 °F 96.2 °F 71.6 °F 55% 29.77 in - West 8.1 mph - N/A   Clear
12:00 PM 89 °F - 71 °F 46% 29.78 in 6 mi West 6.7 mph - -   Clear
12:20 PM 89.6 °F 96.2 °F 71.6 °F 55% 29.77 in - West 9.2 mph - N/A   Clear
12:50 PM 89.6 °F 96.2 °F 71.6 °F 55% 29.77 in - West 10.4 mph - N/A   Clear
1:20 PM 91.4 °F 98.4 °F 71.6 °F 52% 29.77 in 6.2 mi West 10.4 mph - N/A   Partly Cloudy
1:50 PM 91.4 °F 96.8 °F 69.8 °F 49% 29.77 in 6.2 mi West 10.4 mph - N/A   Partly Cloudy
2:20 PM 91.4 °F 95.4 °F 68.0 °F 46% 29.74 in 6.2 mi West 12.7 mph - N/A   Partly Cloudy
2:50 PM 89.6 °F 94.7 °F 69.8 °F 52% 29.74 in - West 13.8 mph - N/A   Clear
3:20 PM 91.4 °F 96.8 °F 69.8 °F 49% 29.74 in - WNW 15.0 mph - N/A   Clear
3:50 PM 91.4 °F 95.4 °F 68.0 °F 46% 29.74 in - WNW 13.8 mph - N/A   Clear
4:20 PM 89.6 °F 93.4 °F 68.0 °F 49% 29.74 in - WNW 12.7 mph - N/A   Clear
4:50 PM 87.8 °F 93.8 °F 71.6 °F 58% 29.77 in - WNW 13.8 mph - N/A   Clear
5:20 PM 87.8 °F 93.8 °F 71.6 °F 58% 29.77 in - NW 11.5 mph - N/A   Clear
5:50 PM 87.8 °F 93.8 °F 71.6 °F 58% 29.77 in - WNW 11.5 mph - N/A   Clear
6:00 PM 87 °F - 70 °F 47% 29.77 in 6 mi NW 11.2 mph - -   Clear
6:20 PM 87.8 °F 92.6 °F 69.8 °F 55% 29.77 in - NW 8.1 mph - N/A   Clear
6:50 PM 86.0 °F 91.8 °F 71.6 °F 62% 29.77 in - NW 8.1 mph - N/A   Clear
7:20 PM 84.2 °F 89.6 °F 71.6 °F 66% 29.77 in - NW 8.1 mph - N/A   Clear
7:50 PM 84.2 °F 89.6 °F 71.6 °F 66% 29.77 in - NW 4.6 mph - N/A   Clear
8:20 PM 84.2 °F 89.6 °F 71.6 °F 66% 29.80 in - NW 4.6 mph - N/A   Clear
8:50 PM 84.2 °F 89.6 °F 71.6 °F 66% 29.80 in - North 4.6 mph - N/A   Clear
9:20 PM 82.4 °F 87.2 °F 71.6 °F 70% 29.80 in 6.2 mi Variable 3.5 mph - N/A   Partly Cloudy
9:50 PM 82.4 °F 87.2 °F 71.6 °F 70% 29.80 in 6.2 mi Variable 2.3 mph - N/A   Partly Cloudy
10:20 PM 82.4 °F 88.2 °F 73.4 °F 74% 29.80 in 6.2 mi Variable 2.3 mph - N/A   Partly Cloudy
10:50 PM 82.4 °F 88.2 °F 73.4 °F 74% 29.80 in 6.2 mi Variable 1.2 mph - N/A   Partly Cloudy
11:20 PM 80.6 °F 85.4 °F 73.4 °F 79% 29.80 in 6.2 mi Variable 2.3 mph - N/A   Partly Cloudy
11:50 PM 80.6 °F 85.4 °F 73.4 °F 79% 29.80 in 6.2 mi Variable 2.3 mph - N/A   Partly Cloudy